Theta_e
319 320 325 325 337 337 341 341 337 339 339 332 332 332 337 334 336 336 324 326 326 325 325 322 322 321 320 320 320 319 318 317 318 317 316 315 313 311 311 310 311 311 312 311 311 310 309 308 307
320 326 326 325 337 342 341 340 340 339 337 334 335 336 336 335 327 326 325 325 325 324 322 321 321 320 319 319 318 318 317 317 316 316 315 312 311 310 310 309 310 310 310 310 309 308 308 308 307
326 326 323 334 336 340 340 340 340 338 335 336 335 334 335 334 326 325 324 325 324 322 321 321 321 319 318 318 318 317 316 314 314 314 313 311 309 309 308 308 308 308 309 309 308 307 307 305 305
326 323 321 336 340 339 340 339 337 338 337 335 335 337 330 327 326 325 323 324 322 321 320 320 320 318 317 317 316 315 313 312 312 311 310 309 308 307 307 306 307 307 308 308 307 306 306 304 303
326 320 330 337 339 339 340 339 337 336 339 338 336 337 334 323 323 322 322 322 321 320 319 319 317 317 316 316 314 312 311 311 310 309 309 308 307 306 306 306 306 306 307 307 306 305 304 303 302
325 322 334 337 337 338 338 337 337 339 341 338 338 336 331 322 321 321 321 321 320 318 317 316 316 316 315 312 310 310 309 308 307 306 306 307 307 307 306 306 306 306 306 305 304 303 302 302 300
327 326 331 333 338 337 337 334 338 340 341 341 336 337 326 321 319 320 321 319 318 317 315 314 314 313 311 309 309 308 307 307 307 305 306 306 305 303 305 305 306 305 304 303 303 302 301 299 299
322 324 332 332 336 337 334 336 336 337 339 336 335 335 330 320 319 320 319 317 316 316 314 312 306 305 306 307 308 307 308 308 307 305 302 301 300 300 302 303 304 303 301 301 301 300 298 297 296
319 321 326 331 333 333 333 337 336 333 336 334 322 325 322 318 318 318 316 316 315 314 311 304 304 305 306 307 309 307 304 302 301 301 301 300 300 299 298 300 299 299 298 298 298 297 296 293 293
319 317 320 323 328 331 333 335 336 337 337 334 322 319 318 317 317 315 314 313 314 313 308 303 304 305 307 307 305 303 302 302 302 301 301 301 299 298 296 296 295 294 294 294 294 294 293 292 292
318 320 319 321 321 326 327 334 334 336 338 334 325 321 318 317 316 316 314 314 313 312 307 303 304 305 306 304 304 303 302 302 301 301 301 300 298 295 294 294 293 293 293 292 292 292 292 292 291
322 319 319 319 318 321 325 332 335 333 334 329 320 319 318 318 316 315 314 313 313 311 308 305 305 305 305 304 304 303 302 301 301 301 300 299 296 294 293 292 292 292 292 292 292 292 291 291 290
319 319 317 315 316 322 331 333 334 331 322 320 319 319 319 318 317 316 315 314 313 311 310 308 306 306 306 305 304 303 302 301 301 301 299 297 295 293 292 292 291 291 291 291 291 291 290 290 289
316 316 315 316 332 331 334 334 334 328 322 322 320 319 319 318 318 316 316 314 313 312 310 310 308 305 303 303 302 301 301 301 301 300 298 297 295 293 292 291 291 290 290 291 291 290 290 289 289
317 318 318 322 325 331 324 331 333 329 324 322 321 320 319 319 318 316 315 313 312 310 310 306 304 304 302 301 301 302 301 300 300 299 298 296 294 293 292 291 291 290 290 290 290 290 290 289 289
317 314 316 322 326 324 325 337 332 324 318 317 315 315 317 315 312 310 310 308 307 306 305 305 306 302 301 301 300 300 298 299 299 298 296 294 293 292 292 291 291 290 290 290 289 290 290 289 289
313 316 317 318 328 326 327 336 326 318 317 315 315 315 314 309 307 306 306 307 307 307 307 303 302 301 300 299 297 297 297 297 297 295 294 293 293 292 292 291 290 290 290 289 289 290 290 289 289
317 317 315 324 324 329 330 325 320 318 316 316 316 314 310 306 304 302 304 307 306 303 301 300 299 298 297 297 295 295 294 293 292 292 292 292 293 292 292 291 290 290 289 289 289 289 289 289 288
316 317 320 324 324 329 330 325 322 319 318 318 316 311 307 304 302 301 302 302 300 299 298 297 297 296 296 294 294 293 293 292 291 291 291 291 291 291 290 290 290 289 289 289 289 288 289 288 288
316 317 325 324 325 327 328 328 323 321 320 318 313 308 306 303 301 299 299 299 298 298 297 296 295 294 294 293 293 292 292 291 291 291 290 290 290 289 289 289 289 288 287 287 287 287 288 287 287
317 316 323 326 325 325 327 328 325 318 317 315 309 306 304 301 300 300 297 297 297 297 296 296 295 294 293 293 292 292 291 291 290 290 289 289 288 287 288 287 287 287 287 287 287 287 287 287 286
318 316 324 327 329 334 324 334 325 319 317 312 307 303 301 301 301 298 297 296 297 296 296 295 294 294 293 292 292 291 290 290 290 289 288 288 287 286 287 287 287 287 286 286 286 286 287 286 286
317 322 325 325 321 323 323 325 321 319 319 313 308 304 303 302 298 297 296 296 297 296 296 296 294 293 293 292 291 290 290 289 288 287 287 286 286 286 286 286 286 286 286 286 286 285 286 286 286
318 317 313 312 314 323 325 323 321 321 320 315 310 306 302 299 298 297 297 297 297 297 297 295 294 293 292 292 291 290 289 287 287 286 286 286 286 286 286 286 286 286 286 286 286 286 285 285 285
311 311 313 316 319 318 323 323 320 318 318 316 312 306 301 299 297 295 296 296 297 299 297 295 294 293 292 291 290 288 287 287 286 286 286 286 286 286 286 286 286 286 286 286 286 286 285 285 285
316 313 315 317 325 327 322 325 320 314 314 313 309 303 300 298 297 295 296 297 299 298 297 295 294 292 292 291 288 287 287 286 286 286 287 287 286 286 286 286 286 287 286 286 286 285 285 283 282
317 317 316 325 325 325 322 319 316 313 310 307 304 302 300 298 297 296 296 299 299 299 297 294 293 292 291 288 287 287 287 286 287 287 286 286 286 285 285 286 285 285 285 285 285 284 282 282 281
317 315 319 320 330 330 328 324 320 316 313 308 306 303 300 298 297 296 298 300 300 297 295 293 292 291 289 287 287 287 287 286 286 286 285 284 284 284 284 284 284 284 284 284 283 282 281 281 281
317 316 316 320 323 326 328 326 319 316 313 310 307 303 300 299 296 296 299 300 299 296 294 292 291 290 287 287 287 287 287 286 285 284 283 281 281 282 282 283 283 283 282 283 282 282 281 281 281
313 316 314 315 319 324 321 322 313 313 312 310 307 304 300 297 296 298 300 300 298 295 293 291 290 287 287 287 287 287 287 285 284 283 280 280 280 280 280 280 280 279 279 279 282 281 281 281 281
Wind_Speed
8 10 5 1 4 5 1 1 4 2 3 4 2 6 9 4 4 2 4 2 20 17 15 13 13 13 12 13 12 12 12 12 13 13 14 14 15 15 15 15 15 15 17 18 18 18 18 18 18
11 6 1 2 5 4 4 1 1 1 1 9 9 5 5 5 4 6 3 13 17 18 16 14 13 12 12 12 12 11 12 12 12 13 14 15 16 16 16 17 17 16 18 17 19 18 18 18 18
7 1 3 4 3 2 2 3 3 2 6 4 6 6 4 3 5 5 11 19 19 18 15 14 14 14 12 12 13 12 12 12 12 12 14 14 15 16 17 17 17 17 16 18 18 17 17 18 17
1 4 4 4 2 3 3 2 5 5 4 4 6 9 5 2 14 11 19 22 21 19 14 13 14 12 12 13 12 12 12 12 13 13 13 13 13 14 15 16 16 16 17 17 17 18 16 17 17
3 3 3 3 3 4 3 4 3 4 6 1 4 8 8 4 18 25 23 23 24 19 14 13 13 13 13 12 12 12 12 12 12 11 11 13 14 13 13 14 14 14 14 15 16 16 16 17 17
4 3 4 2 3 4 5 6 3 3 4 5 6 7 5 18 23 24 25 25 23 20 14 12 12 13 13 12 12 12 12 11 11 10 10 11 14 14 14 14 14 14 12 13 15 15 15 15 16
4 3 3 2 2 5 4 3 2 3 2 2 5 5 6 15 19 25 26 25 23 21 18 15 14 13 12 13 13 12 11 10 9 9 10 10 13 14 14 14 14 12 13 14 15 14 14 14 15
4 4 2 2 1 5 2 4 3 4 2 2 2 5 8 17 26 28 26 21 20 19 15 14 14 15 15 13 12 11 11 11 12 12 11 11 13 14 13 12 12 12 14 14 14 13 13 15 15
3 4 2 4 6 5 4 3 3 1 5 4 8 5 19 33 31 30 26 23 18 16 13 14 14 14 13 12 10 9 9 9 9 10 12 13 14 15 13 13 14 13 14 14 13 13 14 15 16
3 3 8 5 5 5 6 5 8 5 4 4 13 21 26 29 33 29 19 19 19 15 14 13 12 12 11 8 6 7 7 8 9 10 11 13 15 16 14 12 14 14 15 13 12 13 15 17 18
4 5 4 6 9 6 8 6 5 8 4 6 10 20 23 32 19 18 19 20 20 16 13 12 10 9 6 5 4 4 5 6 7 8 12 13 14 16 16 15 16 16 15 14 14 16 17 17 18
3 6 5 7 5 4 6 8 6 4 6 9 23 24 23 18 18 17 15 19 18 15 11 10 7 4 2 1 2 2 3 6 6 9 9 11 15 17 18 17 16 15 15 15 15 15 15 17 18
4 5 3 9 9 1 6 7 6 11 14 21 23 20 16 15 15 12 15 17 17 13 10 8 4 1 3 2 1 2 4 6 6 6 7 11 14 18 19 18 17 17 16 16 13 13 15 18 19
5 5 8 6 6 5 8 5 6 8 12 17 16 13 10 14 14 16 15 16 16 11 9 5 2 3 3 3 4 4 7 8 5 4 7 11 15 18 18 18 18 19 18 16 15 15 16 17 19
3 4 4 10 7 3 4 10 9 8 13 15 15 12 12 16 14 14 17 18 16 14 11 9 7 5 2 6 8 10 7 6 6 6 8 12 15 16 16 16 17 19 19 18 18 14 16 17 18
3 4 3 5 14 6 6 4 7 11 16 17 19 16 15 15 18 20 22 20 21 20 15 10 5 5 6 9 9 7 7 8 5 5 7 10 10 10 12 12 14 16 16 16 18 15 16 17 18
6 2 3 3 18 1 7 7 11 10 15 16 16 16 15 15 20 20 24 24 22 16 11 11 8 8 9 8 9 9 9 12 12 8 9 11 10 11 12 11 13 15 14 16 17 15 15 17 18
3 1 3 3 7 17 18 14 13 10 17 14 15 14 13 13 12 18 24 22 17 14 13 11 11 11 11 11 12 12 13 13 13 13 14 14 12 12 12 11 15 16 17 17 16 16 14 17 16
3 3 4 2 4 9 14 13 10 8 11 13 11 11 12 12 15 18 20 19 17 14 14 14 13 15 16 16 14 12 11 13 16 17 14 13 12 11 12 15 15 17 18 18 18 18 16 15 15
4 5 4 5 7 8 12 11 8 7 7 10 12 11 12 12 12 15 17 16 15 14 13 13 15 16 17 17 16 12 13 14 17 16 16 15 16 16 16 15 16 16 18 19 18 16 14 11 16
4 6 6 6 7 7 13 5 4 6 8 9 9 10 9 10 10 12 14 13 12 12 12 13 13 15 15 16 17 19 17 17 18 18 18 18 19 18 16 17 16 16 17 17 17 15 13 11 14
5 7 15 17 4 5 1 3 3 5 7 7 6 6 6 8 7 9 14 10 10 11 11 10 12 14 15 18 21 21 17 15 17 17 19 19 19 19 18 17 17 17 18 17 17 17 15 14 14
6 10 11 6 6 5 3 4 3 9 6 7 6 7 7 6 7 7 10 9 9 8 8 9 11 14 16 18 18 18 18 16 17 18 20 20 20 20 19 18 19 19 19 19 18 18 18 18 16
12 8 9 5 3 2 2 3 3 5 6 9 9 9 8 7 6 9 8 7 6 6 7 9 12 15 13 14 17 17 16 17 20 21 22 22 23 23 21 21 22 22 22 22 21 20 19 20 18
7 7 3 1 1 4 1 3 1 5 9 13 15 11 9 7 7 8 7 5 4 6 7 10 12 12 11 12 15 16 16 17 20 20 22 24 25 26 26 25 25 25 23 23 23 21 21 18 15
3 7 5 5 4 3 2 2 2 3 8 11 10 11 9 8 6 8 8 5 4 7 9 10 11 10 9 11 16 17 15 17 19 21 23 24 25 27 27 26 25 23 22 23 22 19 18 17 24
3 3 5 7 3 3 2 1 2 5 7 9 11 10 9 8 7 8 7 3 5 8 9 8 8 8 9 13 15 16 15 17 21 23 24 24 25 25 26 24 23 23 24 22 18 15 21 26 29
4 6 3 3 4 3 2 3 3 6 7 8 10 9 8 6 6 7 5 3 6 8 8 7 8 9 10 12 14 16 15 18 21 24 25 25 25 25 25 25 24 23 21 18 18 23 28 27 28
2 3 6 5 3 4 1 3 2 8 10 12 9 9 9 8 7 7 5 6 6 9 7 8 8 7 9 11 14 15 17 19 23 26 26 27 26 24 25 24 23 24 23 21 23 26 26 28 26
3 4 4 4 3 2 3 2 7 8 11 9 8 8 7 7 7 9 7 7 8 7 7 8 7 7 8 11 14 16 16 21 26 28 26 27 27 25 24 23 24 26 28 25 20 28 29 28 26
Wind_Direction
149 137 147 52 53 63 272 87 173 313 311 123 65 82 124 66 24 335 53 143 141 138 132 127 120 116 108 100 96 91 83 76 74 70 67 61 59 56 49 44 43 42 40 37 35 31 28 25 26
146 139 70 75 80 47 305 213 281 45 309 117 106 121 59 75 69 113 75 137 140 132 126 122 119 116 111 107 102 94 81 79 75 70 67 63 54 52 50 43 40 41 37 33 31 28 26 27 25
134 37 76 89 103 150 232 206 148 88 51 147 115 66 86 96 131 129 141 143 136 124 120 128 128 119 118 112 101 95 86 82 77 73 67 60 52 46 42 38 36 34 32 28 23 22 24 25 26
170 14 34 80 192 242 191 237 149 177 121 49 115 86 96 133 162 154 143 141 128 121 131 128 116 120 109 102 97 93 90 82 75 71 63 54 45 38 32 30 27 26 26 21 22 19 22 17 16
50 61 50 48 279 277 230 232 213 162 121 70 138 154 134 51 125 129 134 137 129 129 132 119 114 108 105 101 99 96 89 81 75 70 59 45 30 29 20 20 19 18 17 23 21 20 16 11 10
36 93 59 296 271 276 271 222 274 100 142 158 95 123 82 123 123 127 140 136 133 130 129 121 113 110 109 107 100 96 87 78 67 57 47 34 34 28 25 16 13 14 26 21 16 13 9 5 4
111 83 191 240 285 304 246 120 283 119 94 53 106 87 105 121 121 136 139 137 136 135 130 130 134 121 115 110 102 93 79 63 48 47 35 43 31 23 22 21 24 25 18 8 7 6 8 8 8
111 95 154 242 219 271 278 163 89 36 73 117 75 159 158 142 140 140 136 133 136 139 138 138 134 131 127 116 105 89 77 73 58 56 44 27 16 14 24 34 30 15 13 7 3 9 10 9 8
115 66 209 227 168 236 165 168 39 52 117 62 6 32 129 139 139 135 132 132 139 142 135 135 132 129 120 112 105 99 78 69 60 42 28 30 23 20 19 29 23 18 10 11 14 16 14 0 355
100 141 217 218 194 202 198 153 150 137 163 92 74 98 121 132 138 135 138 140 149 151 144 141 136 129 126 124 112 84 69 58 40 31 29 27 26 26 22 11 4 5 7 11 16 10 0 356 355
179 216 209 254 233 215 175 149 184 128 268 196 162 144 142 139 136 135 142 154 157 154 151 151 142 135 133 128 102 61 39 28 23 25 28 21 24 22 22 12 7 4 12 11 3 359 2 3 359
228 237 216 279 251 160 192 143 103 39 343 103 123 137 139 145 142 148 143 156 157 158 149 147 138 140 111 128 24 19 11 2 13 20 19 21 25 27 23 17 12 12 10 3 2 6 7 3 358
216 271 271 263 289 210 84 75 100 46 74 100 118 128 135 124 122 125 150 150 154 149 147 139 140 322 335 283 282 286 339 0 354 6 18 23 24 23 20 18 15 13 9 7 11 6 2 0 356
205 241 283 321 21 31 101 83 76 74 101 94 105 114 112 121 118 123 135 143 147 139 134 127 82 96 114 112 73 28 4 359 337 6 9 14 14 16 18 19 20 17 12 7 2 359 359 357 353
260 286 32 17 5 79 294 34 53 103 101 105 108 110 105 110 112 114 126 138 137 123 114 106 105 96 80 65 52 14 357 355 348 346 355 5 6 9 10 12 13 10 5 359 352 346 350 350 349
22 51 61 10 3 23 52 64 33 68 89 84 82 81 82 84 96 102 110 106 111 116 112 114 94 94 66 47 24 9 357 3 354 358 5 1 0 4 5 5 5 1 357 351 347 344 342 345 342
0 225 76 1 19 264 56 99 74 81 91 85 86 90 91 85 73 80 95 113 112 112 108 95 88 61 43 36 23 29 43 48 53 37 5 350 344 347 349 351 353 350 348 346 343 340 336 339 336
245 55 81 63 8 65 78 80 68 67 87 89 88 95 91 85 84 90 98 106 104 99 92 82 64 54 49 50 52 62 44 42 41 32 21 10 355 341 339 345 345 346 343 342 342 340 335 335 331
171 119 109 125 182 70 86 85 86 92 91 103 112 101 103 99 97 88 99 105 103 91 79 70 64 54 42 40 39 35 36 37 31 23 20 16 10 4 355 341 342 342 343 344 343 338 335 339 339
177 127 100 83 112 88 105 92 115 103 101 113 118 119 116 107 88 85 92 93 85 82 79 76 65 53 49 47 44 37 32 24 20 17 17 14 8 354 346 345 342 342 341 340 341 342 341 332 343
192 166 176 145 102 80 127 105 123 80 109 102 100 115 112 125 121 108 99 89 90 86 83 71 63 54 48 41 32 29 25 19 12 11 7 5 360 356 350 345 342 342 340 340 340 334 329 322 337
266 188 146 148 118 155 225 217 194 156 128 107 104 95 104 113 102 108 103 105 97 83 83 74 63 53 45 35 30 29 24 13 4 359 355 352 354 352 347 345 341 338 339 337 338 335 318 319 314
226 123 124 110 83 106 1 86 307 136 165 151 153 144 137 136 122 124 127 110 90 92 91 72 60 51 39 31 29 24 19 10 1 355 354 354 354 352 348 340 337 333 327 327 323 328 321 313 301
132 84 64 57 82 49 206 129 210 187 170 165 169 158 148 137 131 139 127 113 108 106 78 78 53 43 33 27 23 17 12 8 1 357 353 351 347 344 341 335 332 328 324 319 318 316 319 318 306
72 81 65 2 28 225 3 128 281 253 174 171 166 158 150 138 148 154 152 151 142 96 73 68 44 35 27 22 19 12 11 7 1 354 345 341 341 341 339 336 332 329 325 320 315 308 313 316 313
146 148 155 208 192 228 17 198 271 4 79 116 131 135 133 142 162 165 171 165 110 94 70 59 34 26 25 24 16 10 4 2 357 351 346 341 339 338 338 336 333 331 331 326 318 311 318 321 317
179 77 150 107 50 97 178 320 34 85 77 108 127 140 151 161 164 171 166 120 111 74 73 57 35 34 36 21 11 6 3 359 354 351 346 343 341 341 340 339 340 337 331 329 330 334 330 327 328
124 151 82 27 138 241 242 212 210 178 159 145 153 159 161 154 154 154 147 126 98 87 88 57 43 44 30 17 12 8 6 1 358 352 349 347 343 343 345 345 345 345 344 341 339 335 336 334 328
66 65 55 110 111 163 178 271 339 181 168 171 168 168 164 152 148 147 146 103 99 112 86 63 48 43 23 19 13 9 7 4 359 357 352 347 346 348 348 349 349 346 342 332 333 339 335 328 321
89 100 117 117 219 69 131 254 327 156 157 152 156 146 126 133 134 148 134 111 103 95 78 67 55 33 25 18 10 9 6 5 3 0 1 360 356 353 352 350 349 348 345 341 331 334 331 323 321